ADR81K LJLJ-LPFR

Flight info

Callsign ADR81K
Flight time 3h 5m
Altitude 35000
Route MODRO1Z MODRO DCT ELDIP DCT KOLON/N0449F370 DCT GANGU DCT PADKO DCT DIVKO DCT REBUL DCT LRD DCT OSVAK DCT SEROX DCT CJN DCT VTB DCT SOTUK DCT PARKA DCT NIRAK
Aircraft A320/M-SDE3FGHIRWY/LB1

Departure

Time 2026-04-20 04:16
Airport Ljubljana Jože Pučnik Airport (LJLJ)

Arrival

Time 2026-04-20 07:22
Airport Faro - Gago Coutinho International Airport (LPFR)
Time Latitude Longitude Altitude Speed Heading
2026-04-20 03:21 46.22979 14.45513 1258 ft 0 kts 36°
2026-04-20 04:04 46.22976 14.45509 1258 ft 3 kts 35°
2026-04-20 04:04 46.22953 14.45489 1260 ft 4 kts 21°
2026-04-20 04:04 46.22928 14.45481 1258 ft 4 kts 349°
2026-04-20 04:05 46.22912 14.45492 1269 ft 0 kts 306°
2026-04-20 04:09 46.22914 14.45487 1264 ft 1 kts 306°
2026-04-20 04:09 46.22921 14.45472 1265 ft 2 kts 306°
2026-04-20 04:09 46.22935 14.45445 1262 ft 4 kts 305°
2026-04-20 04:09 46.22934 14.45412 1264 ft 4 kts 229°
2026-04-20 04:10 46.22909 14.45385 1268 ft 5 kts 217°
2026-04-20 04:10 46.22877 14.45349 1259 ft 7 kts 217°
2026-04-20 04:10 46.22845 14.45301 1263 ft 5 kts 269°
2026-04-20 04:10 46.22867 14.45249 1266 ft 6 kts 306°
2026-04-20 04:11 46.22895 14.45193 1267 ft 7 kts 306°
2026-04-20 04:11 46.22925 14.45133 1262 ft 8 kts 306°
2026-04-20 04:11 46.22958 14.45069 1264 ft 8 kts 306°
2026-04-20 04:11 46.22994 14.44999 1267 ft 9 kts 306°
2026-04-20 04:12 46.23032 14.44925 1269 ft 9 kts 307°
2026-04-20 04:12 46.23077 14.44834 1273 ft 15 kts 304°
2026-04-20 04:12 46.23140 14.44714 1271 ft 15 kts 308°
2026-04-20 04:12 46.23202 14.44594 1274 ft 15 kts 306°
2026-04-20 04:13 46.23263 14.44472 1278 ft 15 kts 306°
2026-04-20 04:13 46.23326 14.44351 1280 ft 15 kts 307°
2026-04-20 04:13 46.23386 14.44235 1282 ft 12 kts 307°
2026-04-20 04:13 46.23389 14.44126 1283 ft 12 kts 236°
2026-04-20 04:14 46.23326 14.44078 1283 ft 4 kts 188°
2026-04-20 04:14 46.23303 14.44079 1284 ft 4 kts 173°
2026-04-20 04:14 46.23268 14.44091 1282 ft 7 kts 163°
2026-04-20 04:14 46.23216 14.44125 1281 ft 10 kts 149°
2026-04-20 04:15 46.23154 14.44226 1279 ft 19 kts 124°
2026-04-20 04:15 46.22976 14.44574 1273 ft 76 kts 126°
2026-04-20 04:15 46.22546 14.45419 1265 ft 131 kts 126°
2026-04-20 04:15 46.21911 14.46651 1267 ft 170 kts 127°
2026-04-20 04:16 46.21203 14.47995 1830 ft 167 kts 127°
2026-04-20 04:16 46.20508 14.49331 2435 ft 168 kts 127°
2026-04-20 04:16 46.19807 14.50693 2987 ft 168 kts 126°
2026-04-20 04:16 46.19115 14.52043 3485 ft 169 kts 126°
2026-04-20 04:17 46.18414 14.53414 3972 ft 170 kts 126°
2026-04-20 04:17 46.17679 14.54757 4439 ft 172 kts 139°
2026-04-20 04:17 46.16561 14.55535 4654 ft 191 kts 176°
2026-04-20 04:17 46.15238 14.55012 4843 ft 212 kts 219°
2026-04-20 04:18 46.14226 14.53322 5039 ft 236 kts 233°
2026-04-20 04:18 46.13217 14.51300 5372 ft 259 kts 234°
2026-04-20 04:18 46.12155 14.49121 6040 ft 269 kts 234°
2026-04-20 04:18 46.11084 14.46923 6828 ft 273 kts 234°
2026-04-20 04:19 46.09983 14.44684 7661 ft 274 kts 234°
2026-04-20 04:19 46.08867 14.42432 8475 ft 277 kts 236°
2026-04-20 04:19 46.07738 14.40159 9284 ft 280 kts 236°
2026-04-20 04:19 46.06606 14.37868 10079 ft 281 kts 239°
2026-04-20 04:20 46.05727 14.35337 10556 ft 291 kts 254°
2026-04-20 04:20 46.05125 14.32436 10706 ft 314 kts 256°
2026-04-20 04:20 46.04501 14.29335 11047 ft 328 kts 256°
2026-04-20 04:20 46.03856 14.26158 11672 ft 332 kts 256°
2026-04-20 04:21 46.03199 14.22956 12371 ft 334 kts 256°
2026-04-20 04:21 46.02542 14.19786 13051 ft 336 kts 256°
2026-04-20 04:21 46.01860 14.16512 13758 ft 339 kts 256°
2026-04-20 04:21 46.01187 14.13290 14383 ft 341 kts 256°
2026-04-20 04:22 46.00501 14.10012 14973 ft 343 kts 256°
2026-04-20 04:22 45.99806 14.06701 15573 ft 345 kts 256°
2026-04-20 04:22 45.99105 14.03372 16161 ft 347 kts 256°
2026-04-20 04:22 45.98411 14.00077 16737 ft 350 kts 256°
2026-04-20 04:23 45.97705 13.96716 17344 ft 352 kts 256°
2026-04-20 04:23 45.96996 13.93338 17991 ft 353 kts 256°
2026-04-20 04:23 45.96283 13.89944 18558 ft 355 kts 256°
2026-04-20 04:23 45.95563 13.86530 19101 ft 358 kts 256°
2026-04-20 04:24 45.94836 13.83093 19647 ft 360 kts 256°
2026-04-20 04:24 45.94104 13.79631 20212 ft 363 kts 256°
2026-04-20 04:24 45.93374 13.76179 20770 ft 366 kts 256°
2026-04-20 04:24 45.92631 13.72668 21302 ft 368 kts 256°
2026-04-20 04:25 45.91878 13.69123 21806 ft 371 kts 256°
2026-04-20 04:25 45.91128 13.65605 22294 ft 373 kts 256°
2026-04-20 04:25 45.90362 13.62029 22769 ft 375 kts 256°
2026-04-20 04:25 45.89593 13.58430 23236 ft 378 kts 256°
2026-04-20 04:26 45.88821 13.54820 23672 ft 380 kts 256°
2026-04-20 04:26 45.88034 13.51153 24062 ft 382 kts 256°
2026-04-20 04:26 45.87247 13.47498 24483 ft 383 kts 257°
2026-04-20 04:26 45.86457 13.43834 24865 ft 385 kts 257°
2026-04-20 04:27 45.85673 13.40204 25226 ft 386 kts 257°
2026-04-20 04:27 45.84873 13.36511 25582 ft 388 kts 257°
2026-04-20 04:27 45.84069 13.32801 25934 ft 390 kts 257°
2026-04-20 04:27 45.83257 13.29062 26284 ft 392 kts 257°
2026-04-20 04:28 45.82444 13.25332 26632 ft 394 kts 257°
2026-04-20 04:28 45.81627 13.21571 26979 ft 396 kts 257°
2026-04-20 04:28 45.80815 13.17831 27318 ft 397 kts 258°
2026-04-20 04:28 45.79985 13.14022 27615 ft 400 kts 258°
2026-04-20 04:29 45.79150 13.10203 27925 ft 402 kts 258°
2026-04-20 04:29 45.78309 13.06366 28254 ft 404 kts 258°
2026-04-20 04:29 45.77463 13.02518 28643 ft 404 kts 258°
2026-04-20 04:29 45.76624 12.98719 29109 ft 403 kts 258°
2026-04-20 04:30 45.75777 12.94897 29576 ft 402 kts 258°
2026-04-20 04:30 45.74936 12.91096 30031 ft 400 kts 258°
2026-04-20 04:30 45.74093 12.87286 30435 ft 399 kts 258°
2026-04-20 04:30 45.73254 12.83497 30833 ft 398 kts 258°
2026-04-20 04:31 45.72416 12.79719 31243 ft 397 kts 258°
2026-04-20 04:31 45.71582 12.75970 31655 ft 396 kts 258°
2026-04-20 04:31 45.70741 12.72206 32070 ft 395 kts 259°
2026-04-20 04:31 45.69905 12.68461 32476 ft 394 kts 259°
2026-04-20 04:32 45.69080 12.64778 32879 ft 393 kts 259°
2026-04-20 04:32 45.68234 12.61006 33284 ft 392 kts 259°
2026-04-20 04:32 45.67414 12.57364 33738 ft 390 kts 259°
2026-04-20 04:32 45.66583 12.53674 34080 ft 389 kts 259°
2026-04-20 04:33 45.65743 12.49946 34356 ft 390 kts 259°
2026-04-20 04:33 45.64918 12.46286 34610 ft 391 kts 258°
2026-04-20 04:33 45.64085 12.42595 34855 ft 392 kts 258°
2026-04-20 04:33 45.63248 12.38884 35096 ft 392 kts 258°
2026-04-20 04:34 45.62409 12.35165 35367 ft 393 kts 258°
2026-04-20 04:34 45.61565 12.31442 35594 ft 394 kts 257°
2026-04-20 04:34 45.60716 12.27713 35826 ft 395 kts 257°
2026-04-20 04:34 45.59872 12.24016 36064 ft 395 kts 257°
2026-04-20 04:35 45.59017 12.20276 36271 ft 396 kts 257°
2026-04-20 04:35 45.58160 12.16531 36485 ft 397 kts 257°
2026-04-20 04:35 45.57301 12.12784 36712 ft 397 kts 257°
2026-04-20 04:35 45.56721 12.10256 36857 ft 397 kts 256°
2026-04-20 04:36 45.55002 12.02765 37033 ft 404 kts 256°
2026-04-20 04:36 45.54119 11.98934 37034 ft 408 kts 256°
2026-04-20 04:37 45.52321 11.91189 37034 ft 411 kts 256°
2026-04-20 04:37 45.50526 11.83472 37039 ft 412 kts 256°
2026-04-20 04:38 45.48724 11.75729 37043 ft 412 kts 256°
2026-04-20 04:38 45.46910 11.67962 37042 ft 412 kts 256°
2026-04-20 04:39 45.45106 11.60255 37053 ft 413 kts 256°
2026-04-20 04:39 45.43280 11.52484 37059 ft 413 kts 256°
2026-04-20 04:40 45.41439 11.44727 37061 ft 413 kts 256°
2026-04-20 04:40 45.39612 11.37022 37044 ft 413 kts 256°
2026-04-20 04:41 45.37773 11.29265 37066 ft 413 kts 256°
2026-04-20 04:41 45.35919 11.21495 37025 ft 414 kts 255°
2026-04-20 04:42 45.34072 11.13790 37043 ft 414 kts 255°
2026-04-20 04:42 45.32208 11.06022 37033 ft 414 kts 255°
2026-04-20 04:43 45.30342 10.98297 37027 ft 414 kts 255°
2026-04-20 04:43 45.28461 10.90552 37034 ft 414 kts 255°
2026-04-20 04:44 45.26581 10.82809 37019 ft 414 kts 255°
2026-04-20 04:44 45.24708 10.75118 37007 ft 415 kts 255°
2026-04-20 04:45 45.22814 10.67371 37021 ft 415 kts 255°
2026-04-20 04:45 45.20532 10.59803 37024 ft 421 kts 246°
2026-04-20 04:46 45.17738 10.52498 37029 ft 421 kts 246°
2026-04-20 04:46 45.14949 10.45202 37028 ft 421 kts 246°
2026-04-20 04:47 45.12164 10.37948 37021 ft 422 kts 246°
2026-04-20 04:47 45.09345 10.30622 37006 ft 422 kts 246°
2026-04-20 04:48 45.06548 10.23368 37012 ft 422 kts 246°
2026-04-20 04:48 45.03723 10.16066 37018 ft 423 kts 246°
2026-04-20 04:49 45.00886 10.08755 37019 ft 423 kts 246°
2026-04-20 04:49 44.98051 10.01460 37019 ft 423 kts 246°
2026-04-20 04:50 44.95223 9.94223 37012 ft 423 kts 246°
2026-04-20 04:50 44.92371 9.86928 37010 ft 423 kts 246°
2026-04-20 04:51 44.89524 9.79661 37016 ft 423 kts 246°
2026-04-20 04:51 44.86665 9.72372 37028 ft 424 kts 245°
2026-04-20 04:52 44.83820 9.65138 37032 ft 424 kts 245°
2026-04-20 04:52 44.80957 9.57875 37038 ft 423 kts 245°
2026-04-20 04:53 44.78103 9.50654 37030 ft 424 kts 245°
2026-04-20 04:53 44.75222 9.43411 37042 ft 424 kts 245°
2026-04-20 04:54 44.72348 9.36181 37036 ft 423 kts 245°
2026-04-20 04:54 44.69463 9.28952 37045 ft 424 kts 245°
2026-04-20 04:55 44.66567 9.21732 37038 ft 424 kts 245°
2026-04-20 04:55 44.63693 9.14555 37036 ft 424 kts 245°
2026-04-20 04:56 44.60791 9.07340 37016 ft 424 kts 245°
2026-04-20 04:56 44.57884 9.00129 37022 ft 423 kts 245°
2026-04-20 04:57 44.54998 8.92974 37022 ft 423 kts 245°
2026-04-20 04:57 44.52092 8.85799 37025 ft 423 kts 245°
2026-04-20 04:58 44.49205 8.78673 37026 ft 423 kts 245°
2026-04-20 04:58 44.46270 8.71473 37024 ft 423 kts 245°
2026-04-20 04:59 44.43368 8.64370 37023 ft 422 kts 245°
2026-04-20 04:59 44.40440 8.57217 37026 ft 422 kts 245°
2026-04-20 05:00 44.37515 8.50079 37021 ft 423 kts 245°
2026-04-20 05:00 44.34598 8.42978 37021 ft 422 kts 245°
2026-04-20 05:01 44.31670 8.35869 37022 ft 422 kts 245°
2026-04-20 05:01 44.28724 8.28750 37003 ft 422 kts 245°
2026-04-20 05:02 44.25803 8.21701 37021 ft 422 kts 245°
2026-04-20 05:02 44.22857 8.14622 37024 ft 421 kts 245°
2026-04-20 05:03 44.19911 8.07553 37022 ft 421 kts 245°
2026-04-20 05:03 44.16957 8.00481 37022 ft 421 kts 245°
2026-04-20 05:04 44.14027 7.93472 37007 ft 421 kts 245°
2026-04-20 05:04 44.11074 7.86425 37012 ft 421 kts 245°
2026-04-20 05:05 44.08115 7.79392 37011 ft 420 kts 245°
2026-04-20 05:05 44.05150 7.72370 37012 ft 421 kts 245°
2026-04-20 05:06 44.02198 7.65369 37016 ft 421 kts 245°
2026-04-20 05:06 43.99228 7.58360 37018 ft 421 kts 245°
2026-04-20 05:07 43.96246 7.51337 36997 ft 419 kts 245°
2026-04-20 05:07 43.93293 7.44416 37014 ft 419 kts 245°
2026-04-20 05:08 43.90314 7.37451 37019 ft 418 kts 245°
2026-04-20 05:08 43.87366 7.30551 37015 ft 418 kts 245°
2026-04-20 05:09 43.84403 7.23618 37017 ft 418 kts 245°
2026-04-20 05:09 43.81422 7.16676 37023 ft 419 kts 245°
2026-04-20 05:10 43.78432 7.09765 37010 ft 418 kts 245°
2026-04-20 05:10 43.75459 7.02885 37016 ft 418 kts 245°
2026-04-20 05:11 43.72489 6.95952 37018 ft 416 kts 248°
2026-04-20 05:11 43.70241 6.88665 37024 ft 411 kts 253°
2026-04-20 05:12 43.68097 6.81386 37019 ft 411 kts 253°
2026-04-20 05:12 43.65920 6.74016 37020 ft 411 kts 253°
2026-04-20 05:13 43.63763 6.66738 37026 ft 411 kts 253°
2026-04-20 05:13 43.61596 6.59446 37009 ft 411 kts 253°
2026-04-20 05:14 43.59434 6.52176 37021 ft 411 kts 253°
2026-04-20 05:14 43.57252 6.44865 37012 ft 411 kts 252°
2026-04-20 05:15 43.55065 6.37563 37015 ft 412 kts 252°
2026-04-20 05:15 43.52882 6.30285 37019 ft 412 kts 252°
2026-04-20 05:16 43.50683 6.23000 37022 ft 412 kts 252°
2026-04-20 05:16 43.48486 6.15742 37023 ft 412 kts 252°
2026-04-20 05:17 43.46278 6.08451 36991 ft 412 kts 252°
2026-04-20 05:17 43.44074 6.01163 37010 ft 412 kts 252°
2026-04-20 05:18 43.41864 5.93879 37020 ft 412 kts 252°
2026-04-20 05:18 43.39654 5.86639 37021 ft 412 kts 252°
2026-04-20 05:19 43.37423 5.79370 37021 ft 412 kts 252°
2026-04-20 05:19 43.35200 5.72140 37018 ft 412 kts 252°
2026-04-20 05:20 43.32965 5.64889 37010 ft 412 kts 251°
2026-04-20 05:20 43.30727 5.57651 37011 ft 412 kts 251°
2026-04-20 05:21 43.28478 5.50395 37002 ft 412 kts 251°
2026-04-20 05:21 43.26248 5.43207 37013 ft 412 kts 251°
2026-04-20 05:22 43.23995 5.35978 37013 ft 412 kts 251°
2026-04-20 05:22 43.22120 5.29969 37009 ft 411 kts 251°
2026-04-20 05:23 43.19868 5.22758 37014 ft 411 kts 251°
2026-04-20 05:23 43.17609 5.15545 37016 ft 411 kts 251°
2026-04-20 05:24 43.15342 5.08339 37013 ft 411 kts 250°
2026-04-20 05:24 43.13066 5.01141 37018 ft 411 kts 250°
2026-04-20 05:25 43.10804 4.93992 36988 ft 412 kts 250°
2026-04-20 05:25 43.08517 4.86775 36996 ft 413 kts 250°
2026-04-20 05:26 43.06210 4.79569 37007 ft 413 kts 250°
2026-04-20 05:26 43.03846 4.72426 37012 ft 414 kts 248°
2026-04-20 05:27 43.01345 4.65298 37018 ft 415 kts 248°
2026-04-20 05:27 42.98841 4.58241 37018 ft 415 kts 248°
2026-04-20 05:28 42.96336 4.51113 37021 ft 415 kts 248°
2026-04-20 05:28 42.93842 4.43989 37019 ft 416 kts 248°
2026-04-20 05:29 42.91341 4.36866 37009 ft 416 kts 248°
2026-04-20 05:29 42.88843 4.29779 37018 ft 416 kts 248°
2026-04-20 05:30 42.86322 4.22646 37021 ft 416 kts 248°
2026-04-20 05:30 42.83815 4.15562 37024 ft 416 kts 248°
2026-04-20 05:31 42.81292 4.08478 37030 ft 416 kts 247°
2026-04-20 05:31 42.78763 4.01386 37032 ft 416 kts 247°
2026-04-20 05:32 42.76222 3.94277 37032 ft 416 kts 247°
2026-04-20 05:32 42.73681 3.87171 37031 ft 416 kts 247°
2026-04-20 05:33 42.71155 3.80132 37028 ft 416 kts 247°
2026-04-20 05:33 42.68598 3.73044 37032 ft 416 kts 247°
2026-04-20 05:34 42.66047 3.65971 37032 ft 416 kts 247°
2026-04-20 05:34 42.62225 3.55419 37031 ft 416 kts 247°
2026-04-20 05:35 42.59660 3.48364 37035 ft 416 kts 247°
2026-04-20 05:35 42.57099 3.41315 37033 ft 416 kts 247°
2026-04-20 05:36 42.54543 3.34318 37022 ft 416 kts 247°
2026-04-20 05:36 42.51968 3.27281 37029 ft 416 kts 247°
2026-04-20 05:37 42.49388 3.20250 37039 ft 416 kts 246°
2026-04-20 05:37 42.46805 3.13225 37041 ft 416 kts 247°
2026-04-20 05:38 42.44241 3.06242 37041 ft 416 kts 247°
2026-04-20 05:38 42.41647 2.99217 37038 ft 416 kts 246°
2026-04-20 05:39 42.39047 2.92223 37040 ft 416 kts 246°
2026-04-20 05:39 42.36459 2.85254 37024 ft 415 kts 246°
2026-04-20 05:40 42.33860 2.78270 37036 ft 415 kts 246°
2026-04-20 05:40 42.31256 2.71294 37037 ft 415 kts 246°
2026-04-20 05:41 42.28660 2.64361 37035 ft 415 kts 246°
2026-04-20 05:41 42.26045 2.57404 37045 ft 415 kts 246°
2026-04-20 05:42 42.23432 2.50454 37051 ft 415 kts 246°
2026-04-20 05:42 42.20838 2.43556 37065 ft 414 kts 246°
2026-04-20 05:43 42.18220 2.36624 37063 ft 414 kts 246°
2026-04-20 05:43 42.15591 2.29691 37055 ft 414 kts 246°
2026-04-20 05:44 42.12983 2.22818 37064 ft 414 kts 246°
2026-04-20 05:44 42.10349 2.15891 37068 ft 414 kts 246°
2026-04-20 05:45 42.07719 2.08978 37077 ft 414 kts 246°
2026-04-20 05:45 42.05089 2.02109 37078 ft 414 kts 245°
2026-04-20 05:46 42.02450 1.95219 37082 ft 414 kts 245°
2026-04-20 05:46 41.99795 1.88310 37071 ft 414 kts 245°
2026-04-20 05:47 41.97160 1.81469 37062 ft 414 kts 245°
2026-04-20 05:47 41.94500 1.74589 37068 ft 415 kts 245°
2026-04-20 05:48 41.91837 1.67710 37063 ft 415 kts 245°
2026-04-20 05:48 41.89166 1.60823 37061 ft 415 kts 245°
2026-04-20 05:49 41.86515 1.53998 37060 ft 415 kts 245°
2026-04-20 05:49 41.83837 1.47121 37059 ft 415 kts 245°
2026-04-20 05:50 41.81176 1.40308 37056 ft 415 kts 245°
2026-04-20 05:50 41.78489 1.33445 37055 ft 415 kts 245°
2026-04-20 05:51 41.75797 1.26603 37035 ft 415 kts 244°
2026-04-20 05:51 41.73100 1.19753 37049 ft 415 kts 245°
2026-04-20 05:52 41.70425 1.12960 37051 ft 415 kts 244°
2026-04-20 05:52 41.68118 1.05933 37044 ft 413 kts 249°
2026-04-20 05:53 41.65922 0.98818 37054 ft 413 kts 249°
2026-04-20 05:53 41.63707 0.91700 37045 ft 413 kts 249°
2026-04-20 05:54 41.61492 0.84611 37051 ft 413 kts 249°
2026-04-20 05:54 41.59284 0.77549 37049 ft 413 kts 249°
2026-04-20 05:55 41.57060 0.70440 37040 ft 414 kts 249°
2026-04-20 05:55 41.54650 0.63452 37041 ft 416 kts 240°
2026-04-20 05:56 41.51555 0.56971 37041 ft 417 kts 239°
2026-04-20 05:56 41.48422 0.50439 37038 ft 417 kts 239°
2026-04-20 05:57 41.45309 0.43948 37037 ft 417 kts 239°
2026-04-20 05:57 41.42171 0.37415 37045 ft 417 kts 239°
2026-04-20 05:58 41.39031 0.30900 37042 ft 417 kts 239°
2026-04-20 05:58 41.35897 0.24429 37047 ft 417 kts 239°
2026-04-20 05:59 41.33234 0.17611 37029 ft 416 kts 247°
2026-04-20 05:59 41.30868 0.10567 37037 ft 416 kts 247°
2026-04-20 06:00 41.28489 0.03529 37039 ft 416 kts 247°
2026-04-20 06:00 41.26124 -0.03448 37047 ft 416 kts 247°
2026-04-20 06:01 41.23745 -0.10471 37045 ft 416 kts 247°
2026-04-20 06:01 41.21364 -0.17492 37045 ft 416 kts 247°
2026-04-20 06:02 41.18970 -0.24517 37045 ft 416 kts 246°
2026-04-20 06:02 41.16581 -0.31488 37047 ft 416 kts 246°
2026-04-20 06:03 41.14180 -0.38490 37051 ft 416 kts 246°
2026-04-20 06:03 41.11779 -0.45477 37040 ft 416 kts 246°
2026-04-20 06:04 41.09383 -0.52440 37045 ft 417 kts 246°
2026-04-20 06:04 41.06972 -0.59434 37049 ft 417 kts 246°
2026-04-20 06:05 41.04553 -0.66423 37060 ft 417 kts 246°
2026-04-20 06:05 41.02127 -0.73407 37061 ft 417 kts 246°
2026-04-20 06:06 40.99712 -0.80339 37071 ft 417 kts 246°
2026-04-20 06:06 40.97675 -0.86195 37071 ft 417 kts 246°
2026-04-20 06:07 40.95258 -0.93128 37085 ft 417 kts 246°
2026-04-20 06:07 40.92817 -1.00100 37085 ft 417 kts 246°
2026-04-20 06:08 40.90377 -1.07044 37090 ft 417 kts 246°
2026-04-20 06:08 40.87924 -1.14006 37087 ft 417 kts 246°
2026-04-20 06:09 40.85478 -1.20932 37092 ft 418 kts 246°
2026-04-20 06:09 40.83014 -1.27891 37097 ft 418 kts 246°
2026-04-20 06:10 40.80551 -1.34850 37097 ft 418 kts 246°
2026-04-20 06:10 40.78091 -1.41767 37100 ft 418 kts 246°
2026-04-20 06:11 40.75616 -1.48716 37097 ft 418 kts 246°
2026-04-20 06:11 40.73135 -1.55661 37101 ft 418 kts 246°
2026-04-20 06:12 40.70657 -1.62581 37108 ft 418 kts 246°
2026-04-20 06:12 40.68172 -1.69525 37107 ft 418 kts 245°
2026-04-20 06:13 40.65678 -1.76463 37109 ft 419 kts 245°
2026-04-20 06:13 40.63190 -1.83346 37114 ft 419 kts 245°
2026-04-20 06:14 40.60687 -1.90274 37110 ft 418 kts 245°
2026-04-20 06:14 40.58186 -1.97199 37111 ft 418 kts 245°
2026-04-20 06:15 40.55683 -2.04079 37111 ft 419 kts 245°
2026-04-20 06:15 40.53164 -2.10989 37115 ft 419 kts 245°
2026-04-20 06:16 40.50640 -2.17907 37105 ft 419 kts 245°
2026-04-20 06:16 40.48132 -2.24777 37103 ft 418 kts 245°
2026-04-20 06:17 40.45607 -2.31674 37104 ft 418 kts 245°
2026-04-20 06:17 40.43087 -2.38508 37095 ft 418 kts 245°
2026-04-20 06:18 40.40550 -2.45377 37088 ft 418 kts 245°
2026-04-20 06:18 40.38009 -2.52238 37088 ft 418 kts 244°
2026-04-20 06:19 40.34678 -2.58442 37087 ft 420 kts 232°
2026-04-20 06:19 40.30919 -2.64344 37083 ft 420 kts 232°
2026-04-20 06:20 40.27205 -2.70188 37096 ft 419 kts 232°
2026-04-20 06:20 40.23466 -2.76057 37090 ft 419 kts 232°
2026-04-20 06:21 40.19723 -2.81914 37079 ft 418 kts 232°
2026-04-20 06:21 40.16011 -2.87715 37084 ft 418 kts 232°
2026-04-20 06:22 40.12272 -2.93560 37076 ft 418 kts 232°
2026-04-20 06:22 40.08531 -2.99380 37078 ft 418 kts 232°
2026-04-20 06:23 40.04787 -3.05191 37077 ft 418 kts 232°
2026-04-20 06:23 40.01064 -3.10966 37078 ft 417 kts 232°
2026-04-20 06:24 39.97327 -3.16761 37064 ft 417 kts 232°
2026-04-20 06:24 39.93583 -3.22561 37056 ft 417 kts 232°
2026-04-20 06:25 39.89840 -3.28332 37063 ft 417 kts 232°
2026-04-20 06:25 39.86111 -3.34083 37062 ft 417 kts 231°
2026-04-20 06:26 39.82360 -3.39844 37065 ft 417 kts 231°
2026-04-20 06:26 39.78600 -3.45626 37056 ft 417 kts 234°
2026-04-20 06:27 39.75566 -3.51983 37061 ft 416 kts 241°
2026-04-20 06:27 39.72649 -3.58481 37052 ft 416 kts 240°
2026-04-20 06:28 39.69716 -3.64992 37055 ft 416 kts 240°
2026-04-20 06:28 39.66796 -3.71453 37061 ft 417 kts 240°
2026-04-20 06:29 39.63857 -3.77948 37059 ft 417 kts 240°
2026-04-20 06:29 39.60930 -3.84406 37057 ft 417 kts 240°
2026-04-20 06:30 39.57968 -3.90916 37061 ft 417 kts 240°
2026-04-20 06:30 39.55030 -3.97358 37058 ft 417 kts 240°
2026-04-20 06:31 39.52068 -4.03854 37055 ft 418 kts 240°
2026-04-20 06:31 39.49105 -4.10337 37053 ft 418 kts 240°
2026-04-20 06:32 39.46155 -4.16780 37050 ft 419 kts 240°
2026-04-20 06:32 39.43176 -4.23265 37055 ft 419 kts 240°
2026-04-20 06:33 39.40190 -4.29746 37054 ft 419 kts 240°
2026-04-20 06:33 39.37197 -4.36239 37052 ft 419 kts 240°
2026-04-20 06:34 39.34227 -4.42675 37062 ft 419 kts 240°
2026-04-20 06:35 39.29726 -4.52394 37067 ft 419 kts 240°
2026-04-20 06:35 39.26738 -4.58828 37068 ft 419 kts 239°
2026-04-20 06:36 39.23737 -4.65280 37059 ft 420 kts 239°
2026-04-20 06:36 39.20724 -4.71740 37068 ft 420 kts 239°
2026-04-20 06:37 39.17698 -4.78190 37059 ft 420 kts 239°
2026-04-20 06:37 39.14623 -4.84616 37064 ft 420 kts 239°
2026-04-20 06:38 39.11548 -4.91010 37066 ft 420 kts 239°
2026-04-20 06:38 39.08491 -4.97374 37072 ft 420 kts 239°
2026-04-20 06:39 39.05413 -5.03772 37058 ft 420 kts 238°
2026-04-20 06:39 39.02321 -5.10167 37056 ft 420 kts 238°
2026-04-20 06:40 38.99012 -5.16316 37052 ft 420 kts 228°
2026-04-20 06:40 38.94975 -5.21759 37050 ft 420 kts 227°
2026-04-20 06:41 38.90954 -5.27166 37051 ft 420 kts 227°
2026-04-20 06:41 38.86913 -5.32579 37056 ft 420 kts 227°
2026-04-20 06:42 38.82860 -5.38007 37060 ft 420 kts 227°
2026-04-20 06:42 38.78837 -5.43395 37057 ft 420 kts 227°
2026-04-20 06:43 38.74778 -5.48806 37054 ft 420 kts 227°
2026-04-20 06:43 38.70751 -5.54170 37046 ft 420 kts 227°
2026-04-20 06:44 38.66675 -5.59588 37053 ft 421 kts 227°
2026-04-20 06:44 38.62617 -5.64978 37055 ft 421 kts 227°
2026-04-20 06:45 38.58573 -5.70335 37066 ft 421 kts 226°
2026-04-20 06:45 38.54484 -5.75737 37072 ft 421 kts 226°
2026-04-20 06:46 38.50423 -5.81099 37058 ft 420 kts 226°
2026-04-20 06:46 38.46385 -5.86424 37061 ft 420 kts 226°
2026-04-20 06:47 38.42316 -5.91775 37050 ft 420 kts 226°
2026-04-20 06:47 38.38250 -5.97125 37068 ft 420 kts 226°
2026-04-20 06:48 38.34179 -6.02470 37068 ft 420 kts 226°
2026-04-20 06:48 38.30135 -6.07776 37062 ft 420 kts 226°
2026-04-20 06:49 38.26056 -6.13098 37074 ft 419 kts 226°
2026-04-20 06:49 38.21977 -6.18396 37069 ft 418 kts 226°
2026-04-20 06:50 38.17899 -6.23696 37073 ft 418 kts 226°
2026-04-20 06:50 38.13865 -6.28955 37057 ft 418 kts 226°
2026-04-20 06:51 38.09803 -6.34238 37062 ft 417 kts 226°
2026-04-20 06:51 38.05734 -6.39508 37068 ft 417 kts 226°
2026-04-20 06:52 38.01686 -6.44749 37060 ft 417 kts 226°
2026-04-20 06:52 37.97618 -6.50008 37060 ft 417 kts 226°
2026-04-20 06:53 37.93567 -6.55222 37057 ft 416 kts 226°
2026-04-20 06:53 37.89501 -6.60456 37056 ft 416 kts 226°
2026-04-20 06:54 37.85438 -6.65686 37057 ft 416 kts 226°
2026-04-20 06:54 37.81389 -6.70875 37049 ft 416 kts 226°
2026-04-20 06:55 37.77320 -6.76085 37058 ft 416 kts 226°
2026-04-20 06:55 37.73932 -6.80411 37044 ft 415 kts 225°
2026-04-20 06:56 37.69862 -6.85596 37049 ft 415 kts 225°
2026-04-20 06:56 37.65833 -6.90743 37047 ft 414 kts 225°
2026-04-20 06:57 37.61783 -6.95909 37042 ft 413 kts 225°
2026-04-20 06:57 37.57731 -7.01061 37040 ft 413 kts 225°
2026-04-20 06:58 37.53683 -7.06202 37030 ft 412 kts 225°
2026-04-20 06:58 37.49650 -7.11295 37026 ft 412 kts 225°
2026-04-20 06:59 37.45602 -7.16406 37032 ft 412 kts 225°
2026-04-20 06:59 37.43582 -7.18958 36726 ft 411 kts 225°
2026-04-20 06:59 37.41559 -7.21507 36064 ft 411 kts 225°
2026-04-20 06:59 37.39562 -7.24023 35453 ft 411 kts 224°
2026-04-20 07:00 37.37543 -7.26568 34840 ft 410 kts 224°
2026-04-20 07:00 37.35526 -7.29109 34214 ft 410 kts 224°
2026-04-20 07:00 37.33501 -7.31657 33490 ft 410 kts 224°
2026-04-20 07:00 37.31503 -7.34169 32664 ft 413 kts 224°
2026-04-20 07:01 37.29436 -7.36748 31756 ft 416 kts 222°
2026-04-20 07:01 37.27154 -7.38931 30877 ft 419 kts 210°
2026-04-20 07:01 37.24481 -7.40462 30210 ft 418 kts 198°
2026-04-20 07:01 37.21674 -7.41233 29476 ft 418 kts 187°
2026-04-20 07:02 37.18771 -7.41231 28763 ft 418 kts 175°
2026-04-20 07:02 37.15910 -7.40558 28078 ft 417 kts 170°
2026-04-20 07:02 37.13061 -7.39902 27422 ft 413 kts 176°
2026-04-20 07:02 37.10215 -7.39942 26806 ft 407 kts 189°
2026-04-20 07:03 37.07488 -7.40763 26216 ft 402 kts 201°
2026-04-20 07:03 37.04992 -7.42302 25652 ft 398 kts 214°
2026-04-20 07:03 37.02845 -7.44456 25106 ft 395 kts 225°
2026-04-20 07:03 37.00938 -7.46917 24585 ft 393 kts 226°
2026-04-20 07:04 36.99033 -7.49370 24084 ft 391 kts 226°
2026-04-20 07:04 36.97158 -7.51769 23627 ft 389 kts 226°
2026-04-20 07:04 36.95263 -7.54187 23105 ft 386 kts 226°
2026-04-20 07:04 36.93384 -7.56579 22605 ft 384 kts 226°
2026-04-20 07:05 36.91517 -7.58956 22132 ft 381 kts 226°
2026-04-20 07:05 36.89663 -7.61319 21685 ft 379 kts 226°
2026-04-20 07:05 36.87846 -7.63635 21251 ft 376 kts 226°
2026-04-20 07:05 36.86013 -7.65975 20797 ft 374 kts 226°
2026-04-20 07:06 36.84406 -7.68510 20348 ft 371 kts 239°
2026-04-20 07:06 36.83351 -7.71447 19894 ft 369 kts 253°
2026-04-20 07:06 36.82916 -7.74553 19441 ft 368 kts 266°
2026-04-20 07:06 36.83106 -7.77745 18979 ft 368 kts 280°
2026-04-20 07:07 36.83662 -7.80861 18505 ft 366 kts 281°
2026-04-20 07:07 36.84221 -7.83968 18022 ft 364 kts 281°
2026-04-20 07:07 36.84771 -7.87045 17490 ft 361 kts 281°
2026-04-20 07:07 36.85305 -7.90060 16966 ft 359 kts 281°
2026-04-20 07:08 36.85842 -7.93092 16440 ft 356 kts 281°
2026-04-20 07:08 36.86374 -7.96102 15915 ft 353 kts 281°
2026-04-20 07:08 36.86900 -7.99090 15401 ft 351 kts 281°
2026-04-20 07:08 36.87419 -8.02058 14887 ft 348 kts 281°
2026-04-20 07:09 36.87935 -8.05006 14393 ft 346 kts 281°
2026-04-20 07:09 36.88444 -8.07908 14171 ft 335 kts 281°
2026-04-20 07:09 36.88927 -8.10663 14047 ft 322 kts 281°
2026-04-20 07:09 36.89398 -8.13352 13928 ft 311 kts 281°
2026-04-20 07:10 36.89853 -8.15949 13787 ft 301 kts 281°
2026-04-20 07:10 36.90298 -8.18498 13487 ft 297 kts 281°
2026-04-20 07:10 36.90732 -8.21010 13128 ft 296 kts 281°
2026-04-20 07:10 36.91158 -8.23493 12764 ft 294 kts 281°
2026-04-20 07:11 36.91589 -8.25990 12400 ft 293 kts 281°
2026-04-20 07:11 36.92054 -8.28476 12039 ft 292 kts 288°
2026-04-20 07:11 36.93075 -8.30616 11640 ft 290 kts 314°
2026-04-20 07:11 36.94774 -8.31944 11025 ft 291 kts 342°
2026-04-20 07:12 36.96762 -8.32110 10636 ft 282 kts 10°
2026-04-20 07:12 36.98548 -8.31293 10496 ft 264 kts 24°
2026-04-20 07:12 37.00132 -8.30330 10365 ft 248 kts 24°
2026-04-20 07:12 37.01657 -8.29399 10026 ft 241 kts 24°
2026-04-20 07:13 37.03151 -8.28482 9580 ft 237 kts 25°
2026-04-20 07:13 37.04551 -8.27418 9083 ft 235 kts 45°
2026-04-20 07:13 37.05367 -8.25620 8446 ft 248 kts 78°
2026-04-20 07:13 37.05152 -8.23423 7656 ft 268 kts 118°
2026-04-20 07:14 37.03839 -8.21765 7154 ft 275 kts 156°
2026-04-20 07:14 37.02008 -8.21459 6972 ft 265 kts 193°
2026-04-20 07:14 37.00442 -8.22539 6714 ft 257 kts 231°
2026-04-20 07:14 36.99771 -8.24499 6467 ft 248 kts 269°
2026-04-20 07:15 36.99920 -8.26595 6346 ft 237 kts 285°
2026-04-20 07:15 37.00563 -8.28424 6218 ft 225 kts 308°
2026-04-20 07:15 37.01699 -8.29698 5978 ft 219 kts 333°
2026-04-20 07:15 37.03140 -8.30258 5665 ft 217 kts 356°
2026-04-20 07:16 37.04635 -8.30057 5285 ft 219 kts 22°
2026-04-20 07:16 37.05773 -8.28805 4756 ft 225 kts 67°
2026-04-20 07:16 37.05916 -8.26914 4439 ft 221 kts 106°
2026-04-20 07:16 37.05466 -8.25104 4137 ft 219 kts 104°
2026-04-20 07:17 37.05175 -8.23218 3851 ft 217 kts 100°
2026-04-20 07:17 37.04925 -8.21382 3574 ft 216 kts 101°
2026-04-20 07:17 37.04670 -8.19530 3292 ft 215 kts 101°
2026-04-20 07:17 37.04413 -8.17691 3009 ft 213 kts 101°
2026-04-20 07:18 37.04160 -8.15877 2725 ft 207 kts 102°
2026-04-20 07:18 37.03919 -8.14153 2461 ft 194 kts 102°
2026-04-20 07:18 37.03693 -8.12544 2237 ft 180 kts 102°
2026-04-20 07:18 37.03484 -8.11054 1977 ft 168 kts 101°
2026-04-20 07:19 37.03298 -8.09724 1783 ft 144 kts 101°
2026-04-20 07:19 37.03129 -8.08527 1596 ft 137 kts 101°
2026-04-20 07:19 37.02965 -8.07366 1408 ft 134 kts 101°
2026-04-20 07:19 37.02803 -8.06212 1234 ft 135 kts 100°
2026-04-20 07:20 37.02639 -8.05050 1059 ft 136 kts 99°
2026-04-20 07:20 37.02476 -8.03900 883 ft 135 kts 98°
2026-04-20 07:20 37.02312 -8.02734 713 ft 136 kts 99°
2026-04-20 07:20 37.02148 -8.01572 549 ft 135 kts 98°
2026-04-20 07:21 37.01960 -8.00427 362 ft 134 kts 99°
2026-04-20 07:21 37.01824 -7.99282 173 ft 132 kts 98°
2026-04-20 07:21 37.01664 -7.98156 28 ft 127 kts 99°
2026-04-20 07:21 37.01536 -7.97240 20 ft 83 kts 99°
2026-04-20 07:22 37.01468 -7.96752 23 ft 25 kts 101°
2026-04-20 07:22 37.01438 -7.96558 22 ft 24 kts 98°
2026-04-20 07:22 37.01432 -7.96353 23 ft 18 kts 80°
2026-04-20 07:22 37.01466 -7.96210 21 ft 15 kts 71°
2026-04-20 07:23 37.01499 -7.96122 21 ft 9 kts 43°
2026-04-20 07:23 37.01560 -7.96134 22 ft 10 kts 308°
2026-04-20 07:23 37.01575 -7.96228 20 ft 12 kts 280°
2026-04-20 07:23 37.01593 -7.96345 20 ft 15 kts 280°
2026-04-20 07:24 37.01614 -7.96483 20 ft 17 kts 281°
2026-04-20 07:24 37.01645 -7.96548 20 ft 8 kts 355°
2026-04-20 07:24 37.01712 -7.96530 21 ft 10 kts 13°
2026-04-20 07:24 37.01772 -7.96524 20 ft 8 kts 345°
2026-04-20 07:25 37.01791 -7.96565 20 ft 6 kts 281°
2026-04-20 07:25 37.01800 -7.96631 20 ft 9 kts 279°
2026-04-20 07:25 37.01813 -7.96719 20 ft 12 kts 280°
2026-04-20 07:25 37.01813 -7.96762 20 ft 3 kts 236°
2026-04-20 07:26 37.01791 -7.96769 20 ft 4 kts 192°
2026-04-20 07:26 37.01765 -7.96775 20 ft 2 kts 190°
2026-04-20 07:26 37.01747 -7.96779 21 ft 2 kts 189°